Location: *
(50.2903°S, 172.5375°W)
Time: 12:33:07
(UTC+00:00)

Cosmos 44 Rocket - Pass Details

Date: 17 November 2019
Orbit: 658 x 732 km, 65.1° (Epoch: 06 December)

Event Time Altitude Azimuth Distance (km) Brightness Sun altitude
Exits shadow 13:42:00 19° 306° (NW) 1,657 4.7 -13.5°
Maximum altitude 13:45:34 67° 226° (SW) 782 3.6 -13.2°
Drops below altitude 10° 13:50:40 10° 143° (SE) 2,238 7.4 -12.7°
Sets 13:53:06 0° 140° (SE) 3,173 8.8 -12.5°
